Location: The Saddle
(36.8333°N, 80.3417°W)
Time: 09:26:58
(UTC-04:00)

Vanguard 2 Rocket - Pass Details

Date: 06 February 2023
Orbit: 555 x 3316 km, 32.9° (Epoch: 25 March)

Event Time Altitude Azimuth Distance (km) Brightness Sun altitude
Rises 15:25:47 0° 259° (WSW) 2,746 10.3 24.1°
Reaches altitude 10° 15:29:17 10° 224° (SW) 1,998 10.8 23.6°
Maximum altitude 15:30:55 12° 202° (SSW) 1,987 10.0 23.3°
Drops below altitude 10° 15:32:44 10° 180° (S) 2,254 9.7 23.1°
Sets 15:37:27 0° 151° (SSE) 3,666 10.2 22.4°
